Location: Newark
(35.8833°N, 14.5000°E)
Time: 02:25:34
(UTC+00:00)

Altair - Pass Details

Date: 22 November 2019
Orbit: 1502 x 1682 km, 47.2° (Epoch: 14 December)

Event Time Altitude Azimuth Distance (km) Brightness Sun altitude
Rises 09:02:23 0° 298° (WNW) 4,676 9.6 28.7°
Reaches altitude 10° 09:05:48 10° 288° (WNW) 3,711 9.2 29.0°
Maximum altitude 09:13:43 32° 230° (SW) 2,454 9.0 29.7°
Drops below altitude 10° 09:21:52 10° 172° (S) 3,818 11.0 30.4°
Sets 09:25:28 0° 163° (SSE) 4,828 11.3 30.7°
